This demonstration page uses our WeatherBlox Daily Observations layout. Learn more.

Left ArrowRight Arrow

Hourly Observations for November 2, 2022

Temp ( °F °C ) Dew Point ( °F °C ) Humidity (%) Winds ( mph kmh ) Pressure ( in mb ) Visibility ( mi km ) Precip ( " mm )
12:56 am 00:56 Clear 59 15 44 6.7 58 58 S 20 31 29.91 1013 10 16 0.00 0.00
1:56 am 01:56 Clear 57 13.9 45 7.2 64 64 S 16 26 29.90 1013 10 16 0.00 0.00
2:56 am 02:56 Clear 57 13.9 46 7.8 67 67 S 18 30 29.88 1012 10 16 0.00 0.00
3:56 am 03:56 Clear 54 12.2 45 7.2 71 71 SSE 18 30 29.87 1011 10 16 0.00 0.00
4:56 am 04:56 Clear 54 12.2 46 7.8 74 74 S 18 30 29.85 1011 10 16 0.00 0.00
5:56 am 05:56 Clear 55 12.8 47 8.3 74 74 SSE 21 33 29.85 1011 10 16 0.00 0.00
6:56 am 06:56 Clear 54 12.2 48 8.9 80 80 S 17 28 29.85 1011 10 16 0.00 0.00
7:56 am 07:56 Clear 54 12.2 48 8.9 80 80 S 20 31 29.84 1011 10 16 0.00 0.00
8:56 am 08:56 Sunny 55 12.8 48 8.9 77 77 S 20 31 29.85 1011 10 16 0.00 0.00
9:56 am 09:56 Sunny 58 14.4 49 9.4 72 72 S 22 35 29.84 1011 10 16 0.00 0.00
10:56 am 10:56 Sunny 62 16.7 50 10 65 65 S 26 43 29.82 1010 10 16 0.00 0.00
11:56 am 11:56 Sunny 67 19.4 49 9.4 52 52 SSW 25 41 29.81 1010 10 16 0.00 0.00
12:56 pm 12:56 Sunny 70 21.1 48 8.9 46 46 S 30 48 29.79 1009 10 16 0.00 0.00
1:56 pm 13:56 Sunny 74 23.3 48 8.9 40 40 S 28 44 29.76 1008 10 16 0.00 0.00
2:56 pm 14:56 Sunny 75 23.9 47 8.3 37 37 S 23 37 29.75 1008 10 16 0.00 0.00
3:56 pm 15:56 Sunny 77 25 47 8.3 35 35 S 29 46 29.73 1007 10 16 0.00 0.00
4:56 pm 16:56 Sunny 76 24.4 46 7.8 35 35 S 23 37 29.73 1007 10 16 0.00 0.00
5:56 pm 17:56 Sunny 74 23.3 46 7.8 37 37 S 24 39 29.72 1007 10 16 0.00 0.00
6:56 pm 18:56 Clear 71 21.7 45 7.2 39 39 S 20 31 29.74 1007 10 16 0.00 0.00
7:56 pm 19:56 Clear 67 19.4 45 7.2 45 45 SSE 15 24 29.75 1008 10 16 0.00 0.00
8:56 pm 20:56 Clear 66 18.9 48 8.9 52 52 SSE 21 33 29.75 1008 10 16 0.00 0.00
9:56 pm 21:56 Clear 65 18.3 49 9.4 56 56 S 23 37 29.75 1008 10 16 0.00 0.00
10:56 pm 22:56 Clear 63 17.2 50 10 63 63 S 23 37 29.75 1008 10 16 0.00 0.00
11:56 pm 23:56 Clear 61 16.1 51 10.6 70 70 S 23 37 29.75 1008 10 16 0.00 0.00

Powered by AerisWeather